Time,TemperatureF,DewpointF,PressureIn,WindDirection,WindDirectionDegrees,WindSpeedMPH,WindSpeedGustMPH,Humidity,HourlyPrecipIn,Conditions,Clouds,dailyrainin,SoftwareType,DateUTC
2013-01-15 00:04:00,39.8,36.0,30.24,South,191,0.0,2.0,87,0.02,,,0.00,weatherlink.com 1.10,2013-01-15 05:04:00,
2013-01-15 00:19:00,39.6,36.0,30.23,SSW,207,0.0,0.0,87,0.00,,,0.00,weatherlink.com 1.10,2013-01-15 05:19:00,
2013-01-15 00:34:00,39.1,37.0,30.24,SSW,207,0.0,1.0,90,0.01,,,0.01,weatherlink.com 1.10,2013-01-15 05:34:00,
2013-01-15 00:49:00,38.1,36.0,30.26,WSW,255,0.0,1.0,92,0.02,,,0.02,weatherlink.com 1.10,2013-01-15 05:49:00,
2013-01-15 01:04:00,37.9,36.0,30.25,North,349,0.0,1.0,91,0.02,,,0.02,weatherlink.com 1.10,2013-01-15 06:04:00,
2013-01-15 01:19:00,37.8,35.0,30.23,East,89,0.0,1.0,89,0.03,,,0.03,weatherlink.com 1.10,2013-01-15 06:19:00,
2013-01-15 01:34:00,37.6,36.0,30.24,East,89,0.0,1.0,92,0.03,,,0.04,weatherlink.com 1.10,2013-01-15 06:34:00,
2013-01-15 01:49:00,37.4,36.0,30.25,East,89,0.0,0.0,94,0.03,,,0.05,weatherlink.com 1.10,2013-01-15 06:49:00,
2013-01-15 02:04:00,37.3,36.0,30.25,East,89,0.0,0.0,94,0.03,,,0.05,weatherlink.com 1.10,2013-01-15 07:04:00,
2013-01-15 02:19:00,36.9,36.0,30.25,East,89,0.0,1.0,95,0.03,,,0.06,weatherlink.com 1.10,2013-01-15 07:19:00,
2013-01-15 02:34:00,36.5,35.0,30.26,WNW,284,0.0,1.0,95,0.03,,,0.07,weatherlink.com 1.10,2013-01-15 07:34:00,
2013-01-15 02:49:00,36.4,35.0,30.22,ESE,113,1.0,1.0,94,0.02,,,0.07,weatherlink.com 1.10,2013-01-15 07:49:00,
2013-01-15 03:04:00,36.4,35.0,30.24,NNW,347,0.0,1.0,95,0.03,,,0.08,weatherlink.com 1.10,2013-01-15 08:04:00,
2013-01-15 03:19:00,36.4,35.0,30.21,SE,129,0.0,2.0,95,0.02,,,0.08,weatherlink.com 1.10,2013-01-15 08:19:00,
2013-01-15 03:34:00,36.3,35.0,30.24,SSW,211,0.0,1.0,96,0.01,,,0.08,weatherlink.com 1.10,2013-01-15 08:34:00,
2013-01-15 03:49:00,36.3,35.0,30.20,SE,139,0.0,1.0,96,0.01,,,0.08,weatherlink.com 1.10,2013-01-15 08:49:00,
2013-01-15 04:04:00,36.3,35.0,30.22,NNE,30,0.0,2.0,96,0.00,,,0.08,weatherlink.com 1.10,2013-01-15 09:04:00,
2013-01-15 04:19:00,36.3,35.0,30.21,East,84,0.0,0.0,96,0.01,,,0.09,weatherlink.com 1.10,2013-01-15 09:19:00,
2013-01-15 04:34:00,36.4,35.0,30.22,East,85,0.0,0.0,96,0.01,,,0.09,weatherlink.com 1.10,2013-01-15 09:34:00,
2013-01-15 04:49:00,36.4,35.0,30.20,East,84,0.0,0.0,96,0.01,,,0.09,weatherlink.com 1.10,2013-01-15 09:49:00,
2013-01-15 05:05:00,36.5,36.0,30.20,East,84,0.0,0.0,96,0.00,,,0.09,weatherlink.com 1.10,2013-01-15 10:05:00,
2013-01-15 05:20:00,36.5,36.0,30.20,East,85,0.0,0.0,96,0.00,,,0.09,weatherlink.com 1.10,2013-01-15 10:20:00,
2013-01-15 05:35:00,36.5,36.0,30.21,East,85,0.0,0.0,96,0.00,,,0.09,weatherlink.com 1.10,2013-01-15 10:35:00,
2013-01-15 05:50:00,36.5,36.0,30.22,East,85,0.0,0.0,97,0.00,,,0.09,weatherlink.com 1.10,2013-01-15 10:50:00,
2013-01-15 06:05:00,36.3,36.0,30.22,East,85,0.0,0.0,97,0.00,,,0.09,weatherlink.com 1.10,2013-01-15 11:05:00,
2013-01-15 06:20:00,36.0,35.0,30.22,East,84,0.0,0.0,96,0.00,,,0.09,weatherlink.com 1.10,2013-01-15 11:20:00,
2013-01-15 06:35:00,35.8,35.0,30.22,East,84,0.0,0.0,97,0.00,,,0.09,weatherlink.com 1.10,2013-01-15 11:35:00,
2013-01-15 06:50:00,35.6,35.0,30.23,East,85,0.0,1.0,97,0.00,,,0.09,weatherlink.com 1.10,2013-01-15 11:50:00,
2013-01-15 07:05:00,35.4,35.0,30.26,East,85,0.0,0.0,97,0.00,,,0.09,weatherlink.com 1.10,2013-01-15 12:05:00,
2013-01-15 07:20:00,35.5,35.0,30.26,East,85,0.0,0.0,97,0.00,,,0.09,weatherlink.com 1.10,2013-01-15 12:20:00,
2013-01-15 07:35:00,35.5,35.0,30.26,NNW,342,0.0,0.0,97,0.00,,,0.09,weatherlink.com 1.10,2013-01-15 12:35:00,
2013-01-15 07:50:00,35.2,35.0,30.27,NNW,327,0.0,1.0,97,0.00,,,0.09,weatherlink.com 1.10,2013-01-15 12:50:00,
2013-01-15 08:05:00,34.8,34.0,30.28,NNW,327,0.0,0.0,96,0.00,,,0.09,weatherlink.com 1.10,2013-01-15 13:05:00,
2013-01-15 08:20:00,34.4,33.0,30.28,NNW,327,0.0,0.0,96,0.00,,,0.09,weatherlink.com 1.10,2013-01-15 13:20:00,
2013-01-15 08:35:00,33.9,33.0,30.28,NNW,327,0.0,0.0,95,0.00,,,0.09,weatherlink.com 1.10,2013-01-15 13:35:00,
2013-01-15 08:50:00,33.7,33.0,30.29,NW,325,0.0,1.0,95,0.00,,,0.09,weatherlink.com 1.10,2013-01-15 13:50:00,
2013-01-15 09:05:00,34.1,33.0,30.29,NNE,30,1.0,1.0,95,0.00,,,0.09,weatherlink.com 1.10,2013-01-15 14:05:00,
2013-01-15 09:20:00,35.6,32.0,30.29,NE,37,1.0,2.0,87,0.00,,,0.09,weatherlink.com 1.10,2013-01-15 14:20:00,
2013-01-15 09:35:00,36.4,32.0,30.29,NE,38,0.0,3.0,85,0.00,,,0.09,weatherlink.com 1.10,2013-01-15 14:35:00,
2013-01-15 09:50:00,37.3,32.0,30.29,East,85,0.0,2.0,81,0.00,,,0.09,weatherlink.com 1.10,2013-01-15 14:50:00,
2013-01-15 10:05:00,38.4,33.0,30.29,North,350,0.0,2.0,80,0.00,,,0.09,weatherlink.com 1.10,2013-01-15 15:05:00,
2013-01-15 10:20:00,38.4,32.0,30.29,NNW,342,1.0,3.0,78,0.00,,,0.09,weatherlink.com 1.10,2013-01-15 15:20:00,
2013-01-15 10:35:00,38.5,33.0,30.29,NNW,338,1.0,4.0,79,0.00,,,0.09,weatherlink.com 1.10,2013-01-15 15:35:00,
2013-01-15 10:50:00,38.7,31.0,30.28,NNE,32,0.0,3.0,75,0.00,,,0.09,weatherlink.com 1.10,2013-01-15 15:50:00,
2013-01-15 11:05:00,39.3,31.0,30.27,NNE,20,0.0,3.0,73,0.00,,,0.09,weatherlink.com 1.10,2013-01-15 16:05:00,
2013-01-15 11:20:00,39.5,31.0,30.26,NNW,347,0.0,3.0,72,0.00,,,0.09,weatherlink.com 1.10,2013-01-15 16:20:00,
2013-01-15 11:35:00,39.8,31.0,30.24,ENE,70,2.0,2.0,70,0.00,,,0.09,weatherlink.com 1.10,2013-01-15 16:35:00,
2013-01-15 11:50:00,39.9,31.0,30.25,NNE,25,1.0,2.0,70,0.00,,,0.09,weatherlink.com 1.10,2013-01-15 16:50:00,
2013-01-15 12:05:00,40.2,31.0,30.25,North,349,0.0,1.0,71,0.00,,,0.09,weatherlink.com 1.10,2013-01-15 17:05:00,
2013-01-15 12:20:00,40.5,31.0,30.24,NNW,333,0.0,2.0,68,0.00,,,0.09,weatherlink.com 1.10,2013-01-15 17:20:00,
2013-01-15 12:35:00,40.9,30.0,30.25,NE,51,1.0,3.0,66,0.00,,,0.09,weatherlink.com 1.10,2013-01-15 17:35:00,
2013-01-15 12:50:00,41.2,31.0,30.25,North,352,2.0,3.0,66,0.00,,,0.09,weatherlink.com 1.10,2013-01-15 17:50:00,
2013-01-15 13:05:00,41.6,31.0,30.24,NNE,16,1.0,2.0,66,0.00,,,0.09,weatherlink.com 1.10,2013-01-15 18:05:00,
2013-01-15 13:20:00,41.7,30.0,30.24,West,273,0.0,1.0,64,0.00,,,0.09,weatherlink.com 1.10,2013-01-15 18:20:00,
2013-01-15 13:35:00,41.7,31.0,30.24,NE,51,0.0,1.0,66,0.00,,,0.09,weatherlink.com 1.10,2013-01-15 18:35:00,
2013-01-15 13:50:00,41.6,31.0,30.25,NNE,31,1.0,2.0,66,0.00,,,0.09,weatherlink.com 1.10,2013-01-15 18:50:00,
2013-01-15 14:05:00,41.5,31.0,30.25,NNE,15,1.0,3.0,66,0.00,,,0.09,weatherlink.com 1.10,2013-01-15 19:05:00,
2013-01-15 14:20:00,41.5,30.0,30.24,NE,53,1.0,3.0,65,0.00,,,0.09,weatherlink.com 1.10,2013-01-15 19:20:00,
2013-01-15 14:35:00,41.4,31.0,30.24,ENE,77,1.0,2.0,66,0.00,,,0.09,weatherlink.com 1.10,2013-01-15 19:35:00,
2013-01-15 14:50:00,41.3,30.0,30.23,NNE,20,0.0,2.0,64,0.00,,,0.09,weatherlink.com 1.10,2013-01-15 19:50:00,
2013-01-15 15:05:00,41.1,30.0,30.23,NNW,333,0.0,1.0,65,0.00,,,0.09,weatherlink.com 1.10,2013-01-15 20:05:00,
2013-01-15 15:20:00,41.1,30.0,30.23,West,276,0.0,1.0,66,0.00,,,0.09,weatherlink.com 1.10,2013-01-15 20:20:00,
2013-01-15 15:35:00,41.1,30.0,30.24,WNW,286,0.0,1.0,66,0.00,,,0.09,weatherlink.com 1.10,2013-01-15 20:35:00,
2013-01-15 16:05:00,40.5,29.0,30.22,ENE,65,0.0,1.0,65,0.00,,,0.09,weatherlink.com 1.10,2013-01-15 21:05:00,
2013-01-15 16:20:00,39.9,30.0,30.22,ENE,65,0.0,0.0,69,0.00,,,0.09,weatherlink.com 1.10,2013-01-15 21:20:00,
2013-01-15 16:35:00,38.8,30.0,30.23,ENE,65,0.0,0.0,72,0.00,,,0.09,weatherlink.com 1.10,2013-01-15 21:35:00,
2013-01-15 16:50:00,38.3,30.0,30.25,ENE,67,0.0,0.0,72,0.00,,,0.09,weatherlink.com 1.10,2013-01-15 21:50:00,
2013-01-15 17:05:00,37.9,30.0,30.25,ENE,67,0.0,0.0,73,0.00,,,0.09,weatherlink.com 1.10,2013-01-15 22:05:00,
2013-01-15 17:21:00,37.3,30.0,30.24,ENE,65,0.0,0.0,75,0.00,,,0.09,weatherlink.com 1.10,2013-01-15 22:21:00,
2013-01-15 17:36:00,37.1,31.0,30.25,ENE,67,0.0,0.0,77,0.00,,,0.09,weatherlink.com 1.10,2013-01-15 22:36:00,
2013-01-15 17:51:00,37.1,31.0,30.25,ENE,66,0.0,0.0,79,0.00,,,0.09,weatherlink.com 1.10,2013-01-15 22:51:00,
2013-01-15 18:06:00,37.2,31.0,30.26,ENE,65,0.0,0.0,79,0.00,,,0.09,weatherlink.com 1.10,2013-01-15 23:06:00,
2013-01-15 18:21:00,37.1,31.0,30.24,ENE,66,0.0,0.0,79,0.00,,,0.09,weatherlink.com 1.10,2013-01-15 23:21:00,
2013-01-15 18:36:00,36.7,31.0,30.25,ENE,67,0.0,0.0,81,0.00,,,0.09,weatherlink.com 1.10,2013-01-15 23:36:00,
2013-01-15 18:51:00,36.0,31.0,30.25,ENE,66,0.0,0.0,83,0.00,,,0.09,weatherlink.com 1.10,2013-01-15 23:51:00,
2013-01-15 19:06:00,35.3,32.0,30.25,ENE,67,0.0,0.0,86,0.00,,,0.09,weatherlink.com 1.10,2013-01-16 00:06:00,
2013-01-15 19:21:00,35.0,31.0,30.26,ENE,67,0.0,0.0,85,0.00,,,0.09,weatherlink.com 1.10,2013-01-16 00:21:00,
2013-01-15 19:36:00,34.9,31.0,30.25,ENE,67,0.0,0.0,86,0.00,,,0.09,weatherlink.com 1.10,2013-01-16 00:36:00,
2013-01-15 19:51:00,35.2,29.0,30.25,NE,45,0.0,0.0,79,0.00,,,0.09,weatherlink.com 1.10,2013-01-16 00:51:00,
2013-01-15 20:06:00,34.8,30.0,30.24,NE,56,0.0,1.0,81,0.00,,,0.09,weatherlink.com 1.10,2013-01-16 01:06:00,
2013-01-15 20:21:00,35.0,29.0,30.25,ENE,57,0.0,0.0,79,0.00,,,0.09,weatherlink.com 1.10,2013-01-16 01:21:00,
2013-01-15 20:36:00,34.8,29.0,30.24,ENE,57,0.0,0.0,79,0.00,,,0.09,weatherlink.com 1.10,2013-01-16 01:36:00,
2013-01-15 20:51:00,34.8,30.0,30.24,ENE,57,0.0,0.0,81,0.00,,,0.09,weatherlink.com 1.10,2013-01-16 01:51:00,
2013-01-15 21:06:00,34.6,30.0,30.24,NE,56,0.0,0.0,82,0.00,,,0.09,weatherlink.com 1.10,2013-01-16 02:06:00,
2013-01-15 21:21:00,34.5,30.0,30.23,ENE,57,0.0,0.0,82,0.00,,,0.09,weatherlink.com 1.10,2013-01-16 02:21:00,
2013-01-15 21:36:00,34.6,30.0,30.23,NE,56,0.0,0.0,82,0.00,,,0.09,weatherlink.com 1.10,2013-01-16 02:36:00,
2013-01-15 21:51:00,34.6,29.0,30.23,ENE,57,0.0,0.0,81,0.00,,,0.09,weatherlink.com 1.10,2013-01-16 02:51:00,
2013-01-15 22:06:00,34.5,29.0,30.23,NE,56,0.0,0.0,79,0.00,,,0.09,weatherlink.com 1.10,2013-01-16 03:06:00,
2013-01-15 22:21:00,34.5,29.0,30.23,NE,56,0.0,0.0,80,0.00,,,0.09,weatherlink.com 1.10,2013-01-16 03:21:00,
2013-01-15 22:36:00,34.6,29.0,30.23,NE,56,0.0,0.0,79,0.00,,,0.09,weatherlink.com 1.10,2013-01-16 03:36:00,
2013-01-15 22:51:00,34.8,29.0,30.23,NE,56,0.0,0.0,80,0.00,,,0.09,weatherlink.com 1.10,2013-01-16 03:51:00,
2013-01-15 23:06:00,35.0,29.0,30.23,ENE,57,0.0,0.0,79,0.00,,,0.09,weatherlink.com 1.10,2013-01-16 04:06:00,
2013-01-15 23:21:00,35.1,30.0,30.23,NE,56,0.0,0.0,80,0.00,,,0.09,weatherlink.com 1.10,2013-01-16 04:21:00,
2013-01-15 23:36:00,35.2,30.0,30.23,NE,56,0.0,0.0,80,0.00,,,0.09,weatherlink.com 1.10,2013-01-16 04:36:00,
2013-01-15 23:51:00,35.2,29.0,30.21,NE,51,0.0,1.0,79,0.00,,,0.09,weatherlink.com 1.10,2013-01-16 04:51:00,